Location: Ostrava
(49.8330°N, 18.2830°E)
Time: 06:32:46
(UTC+02:00)

Lacrosse 5 - Visible Passes

Search period start: 27 May 2016 00:00
Search period end: 06 June 2016 00:00
Orbit: 715 x 722 km, 57.0° (Epoch: 25 May)

Date Brightness Start Highest point End Pass type
(mag) Time Alt. Az. Time Alt. Az. Time Alt. Az.
27 May 2.5 00:39:04 10° NW 00:44:03 55° NNE 00:49:01 10° ESE visible
27 May 2.0 02:22:09 10° WNW 02:27:02 48° SW 02:31:52 10° SSE visible
27 May 3.4 22:01:51 10° WNW 22:06:36 38° N 22:11:19 10° ENE visible
27 May 3.0 23:45:34 10° WNW 23:50:25 44° NNE 23:55:16 10° E visible
28 May 1.7 01:28:38 10° WNW 01:33:42 76° SW 01:38:45 10° SE visible
28 May 3.3 03:12:36 10° W 03:15:58 18° WSW 03:17:55 15° SSW visible
28 May 3.3 22:51:59 10° WNW 22:56:44 38° N 23:01:28 10° ENE visible
29 May 2.0 00:35:12 10° NW 00:40:17 75° NNE 00:45:20 10° ESE visible
29 May 2.6 02:18:31 10° WNW 02:22:55 30° SW 02:24:36 24° SSW visible
29 May 3.4 21:58:18 10° WNW 22:03:00 36° N 22:07:42 10° ENE visible
29 May 2.5 23:41:45 10° NW 23:46:44 54° NNE 23:51:42 10° E visible
30 May 2.0 01:24:51 10° WNW 01:29:43 49° SW 01:31:52 30° SSE visible
30 May 3.0 22:48:15 10° WNW 22:53:06 43° NNE 22:57:57 10° E visible
31 May 1.7 00:31:20 10° WNW 00:36:24 77° SW 00:39:26 24° SE visible
31 May 3.3 02:15:15 10° W 02:18:33 18° WSW 02:18:33 18° WSW visible
31 May 3.3 21:54:40 10° WNW 21:59:25 38° N 22:04:09 10° ENE visible
31 May 2.0 23:37:53 10° NW 23:42:58 74° NNE 23:47:11 15° ESE visible
01 Jun 2.6 01:21:12 10° WNW 01:25:37 31° SW 01:26:19 30° SW visible
01 Jun 2.5 22:44:26 10° NW 22:49:25 54° NNE 22:54:23 10° E visible
02 Jun 2.1 00:27:32 10° WNW 00:32:25 50° SW 00:34:12 34° S visible
02 Jun 3.0 21:50:57 10° WNW 21:55:48 43° NNE 22:00:38 10° E visible
02 Jun 1.8 23:34:01 10° WNW 23:39:06 78° SW 23:42:12 24° SE visible
03 Jun 3.4 01:17:55 10° W 01:21:20 19° WSW 01:21:20 19° WSW visible
03 Jun 2.0 22:40:35 10° NW 22:45:40 73° NNE 22:50:16 13° ESE visible
04 Jun 2.7 00:23:53 10° WNW 00:28:19 31° SW 00:29:24 29° SSW visible
04 Jun 2.5 21:47:08 10° NW 21:52:07 53° NNE 21:57:04 10° E visible
04 Jun 2.1 23:30:13 10° WNW 23:35:07 51° SW 23:37:32 28° SSE visible
05 Jun 4.0 01:16:02 10° WSW 01:16:42 10° WSW 01:16:42 10° WSW visible
05 Jun 1.8 22:36:43 10° WNW 22:41:48 80° SW 22:45:44 17° SE visible
